#timestamp,LO_Frequency,Hit,StdDev 
1506664815.5,286046990.1,P
1506664835.3,286046994.8,N
1506664855.1,286046993.9,N
1506664875.9,286046995.1,N
1506664895.7,286046997.6,N
1506664915.5,286046997.6,N
1506664935.4,286046997.9,N
1506664955.2,286046993.7,N
1506664975.0,286046993.8,N
1506664975.9,286046993.8,N
1506664995.8,286046994.6,N
1506665015.6,286046994.8,N
1506665035.4,286046991.3,Y
1506665055.3,286046999.4,P
1506665075.1,286046995.4,N
1506665076.0,286046995.4,N
1506665095.8,286046995.6,N
1506665115.6,286046996.7,N
1506665135.5,286046993.8,Y
1506665155.3,286046999.1,P
1506665175.2,286046999.2,N
1506665195.9,286046998.8,N
1506665215.7,286047000.0,N
1506665235.5,286047000.0,N
1506665255.4,286047002.8,N
1506665275.2,286047004.4,N
1506665295.0,286047003.0,N
1506665295.9,286047003.0,N
1506665315.8,286047007.2,N
1506665335.6,286046997.4,N
1506665355.4,286046995.3,N
1506665375.3,286047003.5,N
1506665395.1,286047011.3,Y
1506665415.8,286047018.7,P
1506665435.7,286047021.8,N
1506665455.5,286047026.6,N
1506665475.3,286047029.7,Y
1506665495.2,286047016.9,P
1506665515.9,286047020.9,P
1506665535.7,286047022.5,P
1506665555.6,286047027.2,Y
1506665575.4,286047009.3,P
1506665595.2,286047011.6,N
1506665615.1,286047014.5,P
1506665616.0,286047014.5,Y
1506665635.8,286047003.5,P
1506665655.6,286047000.2,N
1506665675.5,286047000.1,N
1506665695.3,286047003.5,N
1506665715.1,286047004.2,N
1506665735.9,286047005.2,N
1506665755.7,286047007.7,N
1506665775.5,286047009.1,N
1506665795.4,286047010.7,N
1506665815.2,286047007.9,N
1506665835.0,286047009.7,N
1506665835.9,286047009.7,N
1506665855.8,286047011.2,N
1506665875.6,286047012.6,Y
1506665895.4,286047010.2,P
1506665915.3,286047007.2,P
1506665935.1,286047010.2,P
1506665936.0,286047010.2,Y
1506665955.8,286046996.9,P
1506665975.7,286046997.0,N
1506665995.5,286047000.5,N
1506666015.3,286047002.2,N
1506666035.2,286046999.9,N
1506666055.9,286047000.1,N
1506666075.7,286047003.9,N
1506666095.6,286047002.5,N
1506666115.4,286047001.7,N
1506666135.2,286047001.5,N
1506666155.0,286047002.6,N
1506666155.9,286047002.6,N
1506666175.8,286047002.1,N
1506666195.6,286047000.8,N
1506666215.4,286047000.3,N
1506666235.3,286047004.4,N
1506666255.1,286046998.9,N
1506666275.8,286047002.0,N
1506666295.7,286046999.5,N
1506666315.5,286046999.4,N
1506666335.3,286046998.7,N
1506666355.2,286047002.0,N
1506666375.9,286047003.7,N
1506666395.7,286047002.6,N
1506666415.5,286047002.4,N
1506666435.4,286047000.4,N
1506666455.2,286047001.1,N
1506666475.0,286046998.8,N
1506666475.9,286046998.8,N
1506666495.8,286047001.2,N
1506666515.6,286047000.4,N
1506666535.4,286047000.2,N
1506666555.3,286047002.1,N
1506666575.1,286047003.7,N
1506666595.8,286047000.6,N
1506666615.7,286046999.3,N
1506666635.5,286047001.0,N
1506666655.3,286047000.3,N
1506666675.2,286047002.6,N
1506666695.9,286047002.5,N
1506666715.7,286047003.5,N
1506666735.6,286047004.7,N
1506666755.4,286047005.3,Y
1506666775.2,286047001.3,P
1506666795.1,286047001.4,P
1506666796.0,286047001.4,P
1506666815.8,286047001.0,Y
1506666835.6,286047004.0,P
1506666855.5,286047003.9,N
1506666875.3,286047002.0,N
1506666895.1,286047000.4,N
1506666915.9,286046998.6,N
1506666935.7,286046999.7,N
1506666955.5,286047000.3,N
1506666975.3,286046999.2,N
1506666995.2,286046995.5,N
1506667015.0,286046998.0,N
1506667015.9,286046998.0,N
1506667035.7,286046997.9,N
1506667055.6,286046997.0,N
1506667075.4,286046995.2,N
1506667095.2,286046992.6,N
1506667115.1,286046990.9,Y
1506667116.0,286046990.9,P
1506667135.8,286046992.0,N
1506667155.6,286046990.5,N
1506667175.5,286046990.5,N
1506667195.3,286046993.2,N
1506667215.1,286046991.5,N
1506667235.9,286046990.7,Y
1506667255.7,286046995.3,P
1506667275.5,286046992.7,P
1506667295.4,286046992.2,P
1506667315.2,286046994.3,Y
1506667335.0,286047003.7,P
1506667335.9,286047003.7,N
1506667355.8,286047001.7,N
1506667375.6,286047003.8,N
1506667395.4,286047007.2,N
1506667415.3,286047007.4,N
1506667435.1,286047006.9,N
1506667436.0,286047006.9,N
1506667455.8,286047003.3,N
1506667475.7,286047006.1,N
1506667495.5,286047008.2,N
1506667515.3,286047006.2,N
1506667535.2,286047003.5,N
1506667555.9,286047004.7,N
1506667575.7,286047004.3,N
1506667595.5,286047004.9,N
1506667615.4,286047009.9,N
1506667635.2,286047010.7,Y
1506667655.0,286047002.2,P
1506667656.0,286047002.2,N
1506667675.8,286047007.3,P
1506667695.6,286047004.5,N
1506667715.4,286047008.4,Y
1506667735.3,286046999.8,P
1506667755.1,286046998.4,N
1506667775.8,286046999.6,N
1506667795.7,286046997.6,N
1506667815.5,286046998.7,N
1506667835.3,286046998.3,N
1506667855.2,286047002.4,N
1506667875.9,286047002.0,N
1506667895.7,286047005.6,N
1506667915.6,286047003.9,N
1506667935.4,286047001.5,N
1506667955.2,286047001.4,N
1506667975.1,286047000.2,N
1506667976.0,286047000.2,N
1506667995.8,286047002.6,N
1506668015.6,286047000.6,N
1506668035.5,286047000.7,N
1506668055.3,286047002.0,N
1506668075.1,286047002.8,N
1506668095.8,286047001.8,N
1506668115.7,286047002.7,N
1506668135.5,286046999.4,N
1506668155.3,286047000.8,N
1506668175.2,286046996.2,N
1506668195.9,286046997.6,N
1506668215.7,286046995.2,N
1506668235.6,286046995.3,N
1506668255.4,286046996.1,N
1506668275.2,286046992.8,N
1506668295.1,286046991.9,N
1506668296.0,286046991.9,N
1506668315.8,286046995.5,N
1506668335.6,286046992.2,N
1506668355.5,286046992.1,N
1506668375.3,286046992.6,N
1506668395.1,286046990.8,N
